TimeMDT,TemperatureF,Dew PointF,Humidity,Sea Level PressureIn,VisibilityMPH,Wind Direction,Wind SpeedMPH,Gust SpeedMPH,PrecipitationIn,Events,Conditions,WindDirDegrees,DateUTC
12:53 AM,46.0,37.9,73,30.13,10.0,WSW,4.6,-,N/A,,Clear,240,2013-09-19 06:53:00
1:53 AM,45.0,37.0,74,30.14,10.0,WSW,5.8,-,N/A,,Clear,250,2013-09-19 07:53:00
2:53 AM,43.0,37.0,80,30.15,10.0,West,5.8,-,N/A,,Clear,260,2013-09-19 08:53:00
3:53 AM,42.1,36.0,79,30.15,10.0,Calm,Calm,-,N/A,,Clear,0,2013-09-19 09:53:00
4:53 AM,42.1,36.0,79,30.15,10.0,WSW,4.6,-,N/A,,Clear,250,2013-09-19 10:53:00
5:53 AM,39.9,35.1,83,30.15,-9999.0,Calm,Calm,-,N/A,,Clear,0,2013-09-19 11:53:00
6:53 AM,37.9,34.0,86,30.17,-9999.0,West,3.5,-,N/A,,Clear,260,2013-09-19 12:53:00
7:53 AM,39.0,34.0,82,30.19,-9999.0,Calm,Calm,-,N/A,,Clear,0,2013-09-19 13:53:00
8:53 AM,45.0,37.0,74,30.21,-9999.0,SW,3.5,-,N/A,,Clear,220,2013-09-19 14:53:00
9:53 AM,50.0,39.0,66,30.21,-9999.0,WNW,4.6,-,N/A,,Clear,300,2013-09-19 15:53:00
10:53 AM,57.0,37.9,49,30.20,-9999.0,Calm,Calm,-,N/A,,Clear,0,2013-09-19 16:53:00
11:53 AM,62.1,41.0,46,30.19,-9999.0,ESE,4.6,-,N/A,,Clear,110,2013-09-19 17:53:00
12:53 PM,64.9,39.9,40,30.17,-9999.0,SSE,6.9,-,N/A,,Clear,150,2013-09-19 18:53:00
1:53 PM,66.9,37.0,33,30.14,-9999.0,Calm,Calm,-,N/A,,Clear,0,2013-09-19 19:53:00
2:53 PM,69.1,37.9,32,30.12,-9999.0,SE,4.6,-,N/A,,Clear,140,2013-09-19 20:53:00
3:53 PM,72.0,35.1,26,30.09,-9999.0,Variable,5.8,-,N/A,,Clear,0,2013-09-19 21:53:00
4:53 PM,73.9,33.1,22,30.05,-9999.0,Calm,Calm,-,N/A,,Clear,0,2013-09-19 22:53:00
5:53 PM,73.9,34.0,23,30.02,-9999.0,Calm,Calm,-,N/A,,Clear,0,2013-09-19 23:53:00
6:53 PM,72.0,34.0,25,30.01,-9999.0,East,4.6,-,N/A,,Clear,100,2013-09-20 00:53:00
7:53 PM,66.9,36.0,32,30.00,-9999.0,Calm,Calm,-,N/A,,Clear,0,2013-09-20 01:53:00
8:53 PM,62.1,37.0,39,30.00,-9999.0,North,3.5,-,N/A,,Clear,360,2013-09-20 02:53:00
9:53 PM,54.0,41.0,62,30.01,-9999.0,Calm,Calm,-,N/A,,Clear,0,2013-09-20 03:53:00
10:53 PM,52.0,39.0,61,30.00,-9999.0,Calm,Calm,-,N/A,,Clear,0,2013-09-20 04:53:00
11:53 PM,48.0,37.9,68,30.00,-9999.0,WNW,3.5,-,N/A,,Clear,290,2013-09-20 05:53:00